CCA1147 ZPPP-ZUUU

Flight info

Callsign CCA1147
Flight time 1h 0m
Altitude 35100
Route DAD9X DADOL W144 VEDPO/K0822S1040 W144 IGNAK IGNAK9J
Aircraft A320/M-SDE3FGHIRWY/LB1

Departure

Time 2026-05-08 12:24
Airport Kunming Changshui International Airport (ZPPP)

Arrival

Time 2026-05-08 13:25
Airport Chengdu Shuangliu International Airport (ZUUU)
Time Latitude Longitude Altitude Speed Heading
2026-05-08 11:17 25.10225 102.93468 6896 ft 0 kts 355°
2026-05-08 12:11 25.10223 102.93468 6895 ft 1 kts 355°
2026-05-08 12:11 25.10206 102.93469 6895 ft 3 kts 355°
2026-05-08 12:11 25.10186 102.93471 6885 ft 3 kts 355°
2026-05-08 12:11 25.10165 102.93473 6873 ft 3 kts 358°
2026-05-08 12:12 25.10145 102.93473 6895 ft 3 kts
2026-05-08 12:12 25.10127 102.93468 6895 ft 3 kts 36°
2026-05-08 12:12 25.10118 102.93459 6895 ft 2 kts 98°
2026-05-08 12:12 25.10120 102.93447 6896 ft 3 kts 103°
2026-05-08 12:13 25.10123 102.93433 6895 ft 0 kts 103°
2026-05-08 12:16 25.10118 102.93457 6895 ft 7 kts 103°
2026-05-08 12:16 25.10084 102.93537 6895 ft 16 kts 124°
2026-05-08 12:17 25.09999 102.93597 6894 ft 15 kts 198°
2026-05-08 12:17 25.09923 102.93605 6894 ft 10 kts 142°
2026-05-08 12:17 25.09874 102.93613 6894 ft 5 kts 195°
2026-05-08 12:17 25.09856 102.93602 6894 ft 1 kts 213°
2026-05-08 12:18 25.09855 102.93601 6894 ft 1 kts 213°
2026-05-08 12:18 25.09822 102.93577 6894 ft 6 kts 214°
2026-05-08 12:18 25.09798 102.93557 6894 ft 4 kts 219°
2026-05-08 12:18 25.09762 102.93522 6895 ft 14 kts 221°
2026-05-08 12:19 25.09694 102.93462 6895 ft 11 kts 217°
2026-05-08 12:19 25.09647 102.93421 6895 ft 7 kts 219°
2026-05-08 12:19 25.09606 102.93384 6896 ft 8 kts 218°
2026-05-08 12:19 25.09574 102.93357 6896 ft 4 kts 218°
2026-05-08 12:20 25.09562 102.93346 6896 ft 1 kts 218°
2026-05-08 12:20 25.09542 102.93328 6896 ft 9 kts 218°
2026-05-08 12:20 25.09464 102.93262 6896 ft 16 kts 218°
2026-05-08 12:20 25.09379 102.93189 6896 ft 15 kts 218°
2026-05-08 12:21 25.09307 102.93125 6897 ft 12 kts 218°
2026-05-08 12:21 25.09244 102.93071 6897 ft 13 kts 218°
2026-05-08 12:21 25.09168 102.93004 6896 ft 13 kts 218°
2026-05-08 12:21 25.09101 102.92953 6897 ft 10 kts 198°
2026-05-08 12:22 25.09049 102.92982 6896 ft 8 kts 133°
2026-05-08 12:22 25.09015 102.93028 6894 ft 7 kts 127°
2026-05-08 12:22 25.09001 102.93076 6894 ft 6 kts 94°
2026-05-08 12:22 25.09012 102.93108 6894 ft 4 kts 52°
2026-05-08 12:23 25.09025 102.93118 6894 ft 0 kts 36°
2026-05-08 12:23 25.09026 102.93119 6894 ft 1 kts 36°
2026-05-08 12:23 25.09117 102.93193 6895 ft 43 kts 37°
2026-05-08 12:23 25.09545 102.93570 6894 ft 116 kts 37°
2026-05-08 12:24 25.10354 102.94272 6916 ft 175 kts 39°
2026-05-08 12:24 25.11291 102.95167 7697 ft 179 kts 40°
2026-05-08 12:24 25.12243 102.96075 8429 ft 177 kts 42°
2026-05-08 12:24 25.13087 102.97077 8784 ft 186 kts 55°
2026-05-08 12:25 25.13835 102.98338 8923 ft 205 kts 60°
2026-05-08 12:25 25.14618 102.99729 9068 ft 226 kts 59°
2026-05-08 12:25 25.15505 103.01257 9193 ft 247 kts 58°
2026-05-08 12:25 25.16496 103.02891 9390 ft 267 kts 57°
2026-05-08 12:26 25.17584 103.04616 9873 ft 278 kts 56°
2026-05-08 12:26 25.18323 103.05756 10301 ft 282 kts 55°
2026-05-08 12:26 25.19452 103.07477 10941 ft 285 kts 54°
2026-05-08 12:26 25.20375 103.08867 11459 ft 289 kts 53°
2026-05-08 12:27 25.21577 103.10655 12119 ft 292 kts 53°
2026-05-08 12:27 25.22850 103.12429 12766 ft 296 kts 42°
2026-05-08 12:27 25.24621 103.13535 13355 ft 294 kts
2026-05-08 12:27 25.26618 103.13466 13872 ft 289 kts 337°
2026-05-08 12:28 25.28274 103.12323 14005 ft 277 kts 309°
2026-05-08 12:28 25.29414 103.10664 14026 ft 274 kts 299°
2026-05-08 12:28 25.30378 103.08847 14147 ft 276 kts 297°
2026-05-08 12:28 25.31342 103.07008 14782 ft 276 kts 298°
2026-05-08 12:29 25.32364 103.05199 15422 ft 278 kts 300°
2026-05-08 12:29 25.33076 103.04020 15850 ft 279 kts 301°
2026-05-08 12:29 25.34213 103.02219 16142 ft 295 kts 302°
2026-05-08 12:29 25.35872 102.99667 16301 ft 321 kts 303°
2026-05-08 12:30 25.37239 102.97613 16432 ft 340 kts 303°
2026-05-08 12:30 25.38691 102.95458 16563 ft 356 kts 303°
2026-05-08 12:30 25.40195 102.93239 16924 ft 364 kts 303°
2026-05-08 12:30 25.41695 102.90973 17456 ft 366 kts 302°
2026-05-08 12:31 25.42672 102.89451 17841 ft 367 kts 302°
2026-05-08 12:31 25.44137 102.87124 18413 ft 368 kts 301°
2026-05-08 12:31 25.45594 102.84782 18891 ft 370 kts 301°
2026-05-08 12:31 25.47186 102.82527 19338 ft 377 kts 310°
2026-05-08 12:32 25.49293 102.80752 19783 ft 388 kts 326°
2026-05-08 12:32 25.51849 102.79675 20197 ft 401 kts 342°
2026-05-08 12:32 25.53293 102.79443 20407 ft 409 kts 351°
2026-05-08 12:32 25.57128 102.79879 20930 ft 424 kts
2026-05-08 12:33 25.59097 102.80297 21203 ft 426 kts
2026-05-08 12:33 25.62016 102.80919 21600 ft 429 kts
2026-05-08 12:33 25.64966 102.81550 22005 ft 432 kts
2026-05-08 12:33 25.67898 102.82174 22395 ft 435 kts
2026-05-08 12:34 25.70880 102.82855 22794 ft 441 kts
2026-05-08 12:34 25.73807 102.84010 23206 ft 451 kts 19°
2026-05-08 12:34 25.76603 102.85623 23597 ft 455 kts 22°
2026-05-08 12:34 25.79412 102.87294 23919 ft 458 kts 22°
2026-05-08 12:35 25.82230 102.88970 24194 ft 460 kts 22°
2026-05-08 12:35 25.85063 102.90650 24499 ft 463 kts 22°
2026-05-08 12:35 25.87911 102.92336 24802 ft 465 kts 22°
2026-05-08 12:35 25.90743 102.94011 25091 ft 468 kts 22°
2026-05-08 12:36 25.93622 102.95713 25354 ft 470 kts 22°
2026-05-08 12:36 25.96524 102.97429 25609 ft 473 kts 22°
2026-05-08 12:36 25.99428 102.99151 25894 ft 475 kts 22°
2026-05-08 12:36 26.02348 103.00886 26173 ft 477 kts 21°
2026-05-08 12:37 26.05278 103.02628 26449 ft 478 kts 22°
2026-05-08 12:37 26.08224 103.04382 26720 ft 481 kts 22°
2026-05-08 12:37 26.11181 103.06144 26967 ft 483 kts 22°
2026-05-08 12:37 26.14158 103.07921 27225 ft 486 kts 22°
2026-05-08 12:38 26.17139 103.09700 27468 ft 486 kts 21°
2026-05-08 12:38 26.20128 103.11481 27693 ft 489 kts 22°
2026-05-08 12:38 26.23127 103.13269 27938 ft 491 kts 22°
2026-05-08 12:38 26.26157 103.15079 28187 ft 494 kts 21°
2026-05-08 12:39 26.29200 103.16896 28428 ft 498 kts 21°
2026-05-08 12:39 26.32228 103.18703 28639 ft 501 kts 21°
2026-05-08 12:39 26.35311 103.20544 28824 ft 504 kts 22°
2026-05-08 12:39 26.38403 103.22394 29062 ft 506 kts 21°
2026-05-08 12:40 26.41510 103.24256 29304 ft 508 kts 21°
2026-05-08 12:40 26.44637 103.26132 29523 ft 510 kts 21°
2026-05-08 12:40 26.47763 103.28011 29733 ft 512 kts 21°
2026-05-08 12:40 26.50908 103.29899 29955 ft 513 kts 21°
2026-05-08 12:41 26.54082 103.31744 30146 ft 514 kts 20°
2026-05-08 12:41 26.57281 103.33534 30394 ft 514 kts 19°
2026-05-08 12:41 26.60461 103.35271 30634 ft 515 kts 18°
2026-05-08 12:41 26.63677 103.37015 30897 ft 514 kts 18°
2026-05-08 12:42 26.66896 103.38771 31167 ft 514 kts 18°
2026-05-08 12:42 26.70095 103.40534 31441 ft 513 kts 18°
2026-05-08 12:42 26.73292 103.42310 31742 ft 512 kts 19°
2026-05-08 12:42 26.76480 103.44093 32027 ft 511 kts 19°
2026-05-08 12:43 26.79659 103.45877 32322 ft 510 kts 19°
2026-05-08 12:43 26.82835 103.47662 32626 ft 509 kts 18°
2026-05-08 12:43 26.86002 103.49442 32945 ft 508 kts 18°
2026-05-08 12:43 26.89156 103.51213 33220 ft 507 kts 18°
2026-05-08 12:44 26.92315 103.52984 33493 ft 506 kts 18°
2026-05-08 12:44 26.95468 103.54750 33758 ft 506 kts 18°
2026-05-08 12:44 26.98607 103.56510 34053 ft 505 kts 18°
2026-05-08 12:44 27.01742 103.58271 34368 ft 503 kts 18°
2026-05-08 12:45 27.04864 103.60026 34651 ft 501 kts 18°
2026-05-08 12:45 27.07985 103.61780 34890 ft 501 kts 18°
2026-05-08 12:45 27.11101 103.63532 35150 ft 500 kts 18°
2026-05-08 12:45 27.14174 103.65261 35309 ft 501 kts 18°
2026-05-08 12:46 27.20417 103.68773 35344 ft 501 kts 18°
2026-05-08 12:46 27.26650 103.72281 35346 ft 501 kts 18°
2026-05-08 12:47 27.32888 103.75799 35345 ft 501 kts 17°
2026-05-08 12:47 27.39171 103.79155 35373 ft 499 kts 15°
2026-05-08 12:48 27.45507 103.82342 35348 ft 499 kts 14°
2026-05-08 12:48 27.51839 103.85557 35343 ft 500 kts 15°
2026-05-08 12:49 27.58164 103.88870 35345 ft 502 kts 15°
2026-05-08 12:49 27.64485 103.92218 35340 ft 502 kts 16°
2026-05-08 12:50 27.70801 103.95557 35336 ft 500 kts 16°
2026-05-08 12:50 27.77121 103.98879 35332 ft 501 kts 16°
2026-05-08 12:51 27.86570 104.03842 35328 ft 501 kts 15°
2026-05-08 12:52 27.92890 104.07178 35338 ft 501 kts 15°
2026-05-08 12:52 28.02361 104.12190 35328 ft 501 kts 15°
2026-05-08 12:53 28.08683 104.15538 35309 ft 501 kts 15°
2026-05-08 12:53 28.15002 104.18881 35295 ft 501 kts 15°
2026-05-08 12:54 28.21327 104.22237 35327 ft 501 kts 15°
2026-05-08 12:54 28.27614 104.25578 35311 ft 502 kts 15°
2026-05-08 12:55 28.33944 104.28901 35308 ft 497 kts 11°
2026-05-08 12:55 28.37183 104.30084 35304 ft 483 kts
2026-05-08 12:55 28.40463 104.30702 35298 ft 469 kts 353°
2026-05-08 12:56 28.43685 104.30782 35296 ft 457 kts 346°
2026-05-08 12:56 28.46852 104.30595 35291 ft 456 kts 346°
2026-05-08 12:56 28.53194 104.30235 35311 ft 457 kts 346°
2026-05-08 12:57 28.59556 104.29895 35298 ft 457 kts 346°
2026-05-08 12:57 28.65926 104.29553 35294 ft 458 kts 346°
2026-05-08 12:58 28.72241 104.29205 35286 ft 458 kts 346°
2026-05-08 12:58 28.78606 104.28855 35323 ft 458 kts 345°
2026-05-08 12:59 28.84965 104.28506 35312 ft 456 kts 345°
2026-05-08 12:59 28.91316 104.28160 35309 ft 456 kts 345°
2026-05-08 13:00 28.97656 104.27819 35305 ft 456 kts 345°
2026-05-08 13:00 29.03990 104.27477 35304 ft 456 kts 345°
2026-05-08 13:01 29.10334 104.27130 35328 ft 455 kts 345°
2026-05-08 13:01 29.16656 104.26781 35316 ft 454 kts 345°
2026-05-08 13:02 29.22959 104.26398 35294 ft 448 kts 341°
2026-05-08 13:02 29.25953 104.25753 35084 ft 430 kts 331°
2026-05-08 13:02 29.28709 104.24596 34821 ft 416 kts 323°
2026-05-08 13:03 29.31200 104.23020 34116 ft 404 kts 315°
2026-05-08 13:03 29.33492 104.21162 33247 ft 404 kts 315°
2026-05-08 13:03 29.35789 104.19285 32334 ft 409 kts 316°
2026-05-08 13:03 29.38107 104.17396 31290 ft 417 kts 317°
2026-05-08 13:04 29.40501 104.15460 30250 ft 426 kts 318°
2026-05-08 13:04 29.42937 104.13507 29392 ft 427 kts 318°
2026-05-08 13:04 29.45366 104.11571 28658 ft 425 kts 319°
2026-05-08 13:04 29.47786 104.09639 28007 ft 421 kts 319°
2026-05-08 13:05 29.50179 104.07720 27373 ft 418 kts 319°
2026-05-08 13:05 29.52553 104.05812 26741 ft 415 kts 319°
2026-05-08 13:05 29.54912 104.03909 26147 ft 412 kts 320°
2026-05-08 13:05 29.57250 104.02017 25557 ft 409 kts 320°
2026-05-08 13:06 29.59563 104.00143 24983 ft 406 kts 320°
2026-05-08 13:06 29.61867 103.98276 24395 ft 403 kts 320°
2026-05-08 13:06 29.64127 103.96444 23839 ft 401 kts 321°
2026-05-08 13:06 29.66400 103.94603 23221 ft 398 kts 321°
2026-05-08 13:07 29.68650 103.92780 22665 ft 394 kts 321°
2026-05-08 13:07 29.70886 103.90987 22080 ft 391 kts 324°
2026-05-08 13:07 29.73331 103.89599 21548 ft 395 kts 338°
2026-05-08 13:07 29.76027 103.88902 21359 ft 401 kts 351°
2026-05-08 13:08 29.78835 103.88935 21376 ft 409 kts
2026-05-08 13:08 29.81614 103.89713 21341 ft 414 kts 16°
2026-05-08 13:08 29.84290 103.90897 20846 ft 411 kts 18°
2026-05-08 13:08 29.86941 103.92116 20322 ft 408 kts 19°
2026-05-08 13:09 29.89563 103.93344 19828 ft 405 kts 19°
2026-05-08 13:09 29.92159 103.94564 19346 ft 401 kts 19°
2026-05-08 13:09 29.94746 103.95778 18889 ft 398 kts 20°
2026-05-08 13:09 29.97303 103.96974 18416 ft 396 kts 20°
2026-05-08 13:10 29.99852 103.98158 17896 ft 393 kts 20°
2026-05-08 13:10 30.02385 103.99331 17402 ft 390 kts 20°
2026-05-08 13:10 30.04888 104.00489 16932 ft 386 kts 20°
2026-05-08 13:10 30.07338 104.01623 16474 ft 383 kts 20°
2026-05-08 13:11 30.09801 104.02766 16026 ft 380 kts 20°
2026-05-08 13:11 30.12244 104.03900 15583 ft 377 kts 20°
2026-05-08 13:11 30.14670 104.05027 15148 ft 374 kts 20°
2026-05-08 13:11 30.17074 104.06143 14709 ft 371 kts 20°
2026-05-08 13:12 30.19460 104.07251 14299 ft 368 kts 21°
2026-05-08 13:12 30.21887 104.08087 13913 ft 362 kts
2026-05-08 13:12 30.24356 104.07826 13508 ft 354 kts 343°
2026-05-08 13:12 30.26431 104.06439 13108 ft 336 kts 317°
2026-05-08 13:13 30.27777 104.04357 12955 ft 315 kts 296°
2026-05-08 13:13 30.28629 104.02070 12513 ft 305 kts 293°
2026-05-08 13:13 30.29336 103.99819 11963 ft 300 kts 281°
2026-05-08 13:13 30.29252 103.97446 11424 ft 296 kts 252°
2026-05-08 13:14 30.28226 103.95477 11227 ft 279 kts 225°
2026-05-08 13:14 30.26700 103.94160 10877 ft 270 kts 214°
2026-05-08 13:14 30.25334 103.92742 10513 ft 260 kts 236°
2026-05-08 13:14 30.24664 103.90866 10159 ft 250 kts 266°
2026-05-08 13:15 30.24895 103.88925 9785 ft 244 kts 295°
2026-05-08 13:15 30.25908 103.87387 9396 ft 242 kts 323°
2026-05-08 13:15 30.27423 103.86590 9011 ft 241 kts 351°
2026-05-08 13:15 30.28529 103.86549 8757 ft 241 kts
2026-05-08 13:16 30.30725 103.86684 8221 ft 236 kts 355°
2026-05-08 13:16 30.32337 103.86405 7799 ft 233 kts 340°
2026-05-08 13:16 30.33657 103.85399 7381 ft 228 kts 308°
2026-05-08 13:16 30.34282 103.83743 6964 ft 227 kts 279°
2026-05-08 13:17 30.34392 103.81929 6563 ft 226 kts 264°
2026-05-08 13:17 30.34119 103.80780 6278 ft 225 kts 242°
2026-05-08 13:17 30.32591 103.79290 5913 ft 214 kts 194°
2026-05-08 13:17 30.31625 103.79201 5797 ft 210 kts 171°
2026-05-08 13:18 30.30310 103.79874 5621 ft 209 kts 140°
2026-05-08 13:18 30.29463 103.81227 5457 ft 210 kts 109°
2026-05-08 13:18 30.29328 103.82880 5320 ft 205 kts 78°
2026-05-08 13:18 30.29893 103.84321 5231 ft 192 kts 50°
2026-05-08 13:19 30.30900 103.85223 5195 ft 176 kts 22°
2026-05-08 13:19 30.32385 103.85257 5202 ft 162 kts 342°
2026-05-08 13:19 30.33135 103.85119 5182 ft 163 kts
2026-05-08 13:19 30.34520 103.85715 5242 ft 164 kts 17°
2026-05-08 13:20 30.35243 103.85993 5145 ft 159 kts 19°
2026-05-08 13:20 30.36253 103.86415 4953 ft 155 kts 20°
2026-05-08 13:20 30.37265 103.86865 4765 ft 155 kts 21°
2026-05-08 13:20 30.38266 103.87320 4562 ft 154 kts 22°
2026-05-08 13:21 30.39264 103.87779 4347 ft 154 kts 22°
2026-05-08 13:21 30.40258 103.88239 4152 ft 154 kts 22°
2026-05-08 13:21 30.41253 103.88700 3953 ft 153 kts 23°
2026-05-08 13:21 30.42243 103.89159 3754 ft 153 kts 23°
2026-05-08 13:22 30.43228 103.89616 3560 ft 152 kts 24°
2026-05-08 13:22 30.44207 103.90070 3361 ft 151 kts 24°
2026-05-08 13:22 30.45183 103.90523 3164 ft 151 kts 24°
2026-05-08 13:22 30.46157 103.90975 2965 ft 150 kts 24°
2026-05-08 13:23 30.47124 103.91424 2769 ft 149 kts 24°
2026-05-08 13:23 30.48087 103.91871 2562 ft 149 kts 24°
2026-05-08 13:23 30.49044 103.92316 2359 ft 148 kts 23°
2026-05-08 13:23 30.49987 103.92758 2149 ft 148 kts 23°
2026-05-08 13:24 30.50935 103.93210 1901 ft 146 kts 22°
2026-05-08 13:24 30.51882 103.93643 1736 ft 146 kts 21°
2026-05-08 13:24 30.52790 103.94074 1669 ft 129 kts 20°
2026-05-08 13:24 30.53466 103.94374 1664 ft 79 kts 22°
2026-05-08 13:25 30.53818 103.94535 1652 ft 30 kts 21°
2026-05-08 13:25 30.54004 103.94619 1651 ft 21 kts 19°
2026-05-08 13:25 30.54139 103.94618 1649 ft 10 kts 356°
2026-05-08 13:25 30.54207 103.94613 1648 ft 9 kts 356°
2026-05-08 13:26 30.54268 103.94604 1647 ft 8 kts 352°
2026-05-08 13:26 30.54318 103.94592 1647 ft 7 kts 350°
2026-05-08 13:26 30.54358 103.94586 1647 ft 5 kts 355°
2026-05-08 13:26 30.54402 103.94587 1647 ft 11 kts
2026-05-08 13:27 30.54490 103.94623 1647 ft 14 kts 21°
2026-05-08 13:27 30.54577 103.94663 1647 ft 13 kts 21°
2026-05-08 13:27 30.54659 103.94701 1647 ft 12 kts 21°
2026-05-08 13:27 30.54729 103.94734 1647 ft 10 kts 22°
2026-05-08 13:28 30.54792 103.94757 1647 ft 9 kts
2026-05-08 13:28 30.54830 103.94720 1647 ft 7 kts 294°
2026-05-08 13:28 30.54847 103.94679 1647 ft 5 kts 296°
2026-05-08 13:28 30.54864 103.94653 1647 ft 3 kts 322°
2026-05-08 13:29 30.54880 103.94644 1647 ft 2 kts 335°
2026-05-08 13:29 30.54926 103.94620 1647 ft 17 kts 336°
2026-05-08 13:29 30.55042 103.94561 1647 ft 19 kts 336°
2026-05-08 13:29 30.55169 103.94500 1647 ft 21 kts 338°
2026-05-08 13:30 30.55306 103.94432 1647 ft 22 kts 335°
2026-05-08 13:30 30.55451 103.94359 1646 ft 24 kts 338°
2026-05-08 13:30 30.55602 103.94285 1647 ft 18 kts 336°
2026-05-08 13:30 30.55724 103.94225 1647 ft 20 kts 338°
2026-05-08 13:31 30.55843 103.94168 1647 ft 15 kts 338°
2026-05-08 13:31 30.55938 103.94154 1647 ft 13 kts 357°
2026-05-08 13:31 30.56019 103.94168 1647 ft 11 kts 23°
2026-05-08 13:31 30.56083 103.94200 1647 ft 9 kts 27°
2026-05-08 13:32 30.56112 103.94254 1647 ft 5 kts 91°
2026-05-08 13:32 30.56103 103.94282 1647 ft 5 kts 75°
2026-05-08 13:32 30.56147 103.94332 1647 ft 13 kts 21°
2026-05-08 13:32 30.56253 103.94380 1647 ft 18 kts 22°
2026-05-08 13:33 30.56374 103.94437 1647 ft 20 kts 21°
2026-05-08 13:33 30.56479 103.94485 1647 ft 14 kts 21°
2026-05-08 13:33 30.56540 103.94527 1647 ft 7 kts 52°
2026-05-08 13:33 30.56542 103.94574 1647 ft 5 kts 108°
2026-05-08 13:34 30.56548 103.94607 1647 ft 4 kts 56°
2026-05-08 13:34 30.56563 103.94624 1647 ft 3 kts 37°
2026-05-08 13:34 30.56575 103.94631 1647 ft 2 kts 24°
2026-05-08 13:34 30.56583 103.94635 1647 ft 2 kts 23°
2026-05-08 13:35 30.56602 103.94645 1647 ft 3 kts 23°
2026-05-08 13:35 30.56616 103.94652 1647 ft 0 kts 24°